STARLINK-34757, 64850

Orbit data source: Space-Track

STARLINK-34757, 64850 is a payload satellite owned by SpaceX/Seattle (US) in SSO that was launched on Sat, 19 Jul 2025 UTC via an FALCON 9 launch vehicle from the Air Force Western Test Range (AFWTR). Payload-class satellites include a variety of spacecraft equipped with specific instruments for various scientific and technological missions. These include communications satellites like Starlink; space stations such as the ISS; scientific satellites like the Hubble; Earth observation satellites from companies like Planet Labs, Umbra, and HawkEye 360; GPS; miniature CubeSats for education and research; and military/defense satellites.

Loading next visibility...
Identifier
64850, 2025-152J
Orbit
SSO
Country
Flag of USUS
Related business
Manufacturer
SpaceX/Seattle
Mission
Operational Commercial Communications
Bus & Motor
STARLINK V2MO, Unknown motor
Mass
575 kg wet, ~530 kg dry
Launch date (UTC)
2025-07-19 (9 months ago)
Launch vehicle
FALCON 9
Launch site
Air Force Western Test Range (AFWTR)
Object type
Payload
Rocket body
Debris
Shape & HBR
Box + 2 Pan, 17.7 m
Radar Cross Section
36.964 m², Large (>1 m²)

Expand to show TLE details & history
Last TLE update: 20 hours ago

TLE from 20 hours ago
0 STARLINK-34757
1 64850U 25152J   26094.52274081  .00003744  00000-0  26355-3 0  9990
2 64850  97.6021 310.9518 0002347  69.3651 290.7827 15.05649835 39309
Epoch: 2026-04-04T12:32Z
TLE epoch observation values (Epoch: 2026-04-04T12:32:44.805Z)
Latitude
-0.00009°
Longitude
-70.07618°
Altitude
552 km
Speed
7.586 km/s
True Right ascension
20h 43m 48s
True Declination
0° 00' 00"
Sunlit
Object was in daylight at epoch
Visualization orbit readout
Latitude
Unknown
Longitude
Unknown
Altitude
Unknown
Speed
Unknown
Apparent Right ascension
Unknown
Apparent Declination
Unknown
Sunlit
N/A
Visualization observer readout
Local Sidereal Time
14:35:18
Azimuth
Unknown
Elevation
Unknown
Doppler factor
Unknown
Orbital elements
Apogee altitude
548.13 km
Perigee altitude
544.88 km
Semi-major axis
6,924.642 km
Eccentricity
0.00023
Inclination
97.6021°
RAAN
310.9518°
Arg. of periapsis
69.3651°
True anomaly
290.75755°
Mean anomaly
290.7827°
Eccentric anomaly
290.77013°
Mean motion
3.76658 °/min
Orbital period
95.58 mins
BSTAR
0.00026355
Loading maneuver chart data...
Computing Atmospheric mass density...
Loading historical data...
Loading historical data...
Loading historical data...
Loading historical data...
Loading historical data...
Loading historical data...
Loading historical data...

Documentation

Showing up to 5 results
|